QPF
0.09 0.07 0.07 0.05 0.05 0.04 0.04 0.04 0.04 0.05 0.07 0.07 0.05 0.02 0.02 0.03 0.03 0.03 0.03 0.03 0.02 0.02 0.01 0.02 0.02 0.03 0.03 0.03 0.04 0.06 0.08 0.09 0.08 0.06 0.05 0.06 0.06 0.05 0.06 0.04 0.03 0.03 0.03
0.08 0.07 0.06 0.05 0.04 0.03 0.03 0.04 0.03 0.03 0.04 0.04 0.03 0.03 0.02 0.02 0.03 0.02 0.02 0.01 0.01 0.01 0.01 0.01 0.02 0.03 0.03 0.04 0.04 0.06 0.10 0.11 0.10 0.10 0.07 0.06 0.06 0.05 0.04 0.03 0.03 0.03 0.02
0.04 0.05 0.05 0.04 0.03 0.02 0.02 0.02 0.02 0.01 0.01 0.02 0.02 0.02 0.01 0.02 0.02 0.02 0.01 0.01 0.01 0.01 0.01 0.01 0.02 0.02 0.02 0.03 0.03 0.04 0.06 0.07 0.08 0.09 0.09 0.09 0.09 0.08 0.06 0.03 0.02 0.03 0.03
0.06 0.05 0.05 0.05 0.05 0.03 0.02 0.01 0.01 0.01 0.01 0.01 0.01 0.01 0.01 0.02 0.02 0.02 0.02 0.02 0.01 0.01 0.01 0.01 0.02 0.02 0.01 0.03 0.02 0.02 0.04 0.04 0.04 0.04 0.06 0.09 0.10 0.09 0.07 0.04 0.03 0.03 0.03
0.06 0.08 0.06 0.05 0.05 0.04 0.02 0.01 0.01 0.01 0.01 0.01 0.00 0.01 0.01 0.01 0.01 0.01 0.01 0.01 0.01 0.01 0.02 0.02 0.03 0.03 0.03 0.04 0.02 0.02 0.03 0.03 0.02 0.02 0.03 0.06 0.10 0.11 0.09 0.06 0.03 0.03 0.04
0.03 0.08 0.07 0.06 0.04 0.03 0.03 0.02 0.02 0.02 0.01 0.01 0.01 0.01 0.01 0.01 0.01 0.01 0.01 0.01 0.01 0.02 0.02 0.02 0.03 0.05 0.04 0.04 0.02 0.02 0.03 0.03 0.02 0.02 0.02 0.03 0.07 0.12 0.14 0.12 0.07 0.03 0.03
0.01 0.04 0.08 0.06 0.05 0.05 0.03 0.02 0.02 0.02 0.02 0.02 0.02 0.01 0.01 0.01 0.01 0.00 0.00 0.00 0.01 0.02 0.02 0.03 0.03 0.05 0.05 0.03 0.02 0.02 0.03 0.03 0.03 0.02 0.02 0.02 0.03 0.07 0.11 0.14 0.12 0.07 0.04
0.01 0.01 0.03 0.05 0.05 0.05 0.05 0.03 0.03 0.03 0.03 0.02 0.02 0.01 0.01 0.01 0.01 0.00 0.00 0.00 0.00 0.01 0.02 0.02 0.02 0.01 0.02 0.02 0.02 0.02 0.02 0.03 0.03 0.02 0.02 0.03 0.02 0.04 0.08 0.14 0.14 0.10 0.07
0.01 0.01 0.01 0.02 0.02 0.03 0.04 0.03 0.03 0.03 0.03 0.02 0.02 0.01 0.01 0.01 0.01 0.01 0.01 0.00 0.00 0.01 0.01 0.02 0.02 0.01 0.01 0.02 0.02 0.02 0.02 0.02 0.03 0.03 0.03 0.04 0.05 0.05 0.06 0.12 0.15 0.12 0.09
0.01 0.01 0.02 0.02 0.02 0.02 0.02 0.03 0.03 0.03 0.03 0.02 0.01 0.01 0.02 0.01 0.00 0.01 0.01 0.01 0.00 0.00 0.00 0.01 0.01 0.01 0.02 0.02 0.02 0.02 0.02 0.02 0.03 0.04 0.05 0.04 0.04 0.06 0.06 0.07 0.11 0.13 0.11
0.03 0.03 0.03 0.03 0.04 0.04 0.03 0.02 0.02 0.03 0.02 0.01 0.01 0.02 0.02 0.01 0.00 0.01 0.01 0.01 0.00 0.00 0.00 0.00 0.00 0.01 0.01 0.01 0.01 0.02 0.03 0.03 0.03 0.04 0.04 0.05 0.05 0.05 0.04 0.04 0.06 0.09 0.12
0.06 0.05 0.05 0.05 0.05 0.06 0.05 0.04 0.03 0.03 0.02 0.02 0.02 0.02 0.02 0.01 0.01 0.01 0.02 0.02 0.01 0.01 0.00 0.00 0.00 0.00 0.00 0.01 0.01 0.01 0.01 0.02 0.02 0.02 0.02 0.03 0.03 0.03 0.04 0.04 0.04 0.06 0.09
0.08 0.07 0.07 0.07 0.06 0.07 0.07 0.06 0.05 0.05 0.04 0.04 0.04 0.03 0.02 0.02 0.02 0.02 0.03 0.03 0.02 0.02 0.02 0.01 0.01 0.00 0.00 0.00 0.00 0.00 0.00 0.01 0.01 0.01 0.01 0.01 0.02 0.02 0.03 0.03 0.03 0.05 0.08
0.07 0.08 0.09 0.09 0.09 0.09 0.10 0.09 0.07 0.07 0.06 0.06 0.05 0.04 0.04 0.04 0.04 0.04 0.04 0.03 0.03 0.02 0.02 0.01 0.01 0.01 0.01 0.00 0.00 0.00 0.00 0.00 0.00 0.00 0.00 0.01 0.01 0.01 0.01 0.01 0.02 0.05 0.06
0.06 0.07 0.08 0.07 0.07 0.09 0.10 0.09 0.07 0.06 0.06 0.05 0.04 0.04 0.03 0.03 0.03 0.03 0.03 0.03 0.02 0.03 0.03 0.02 0.02 0.01 0.01 0.00 0.00 0.00 0.00 0.01 0.01 0.01 0.00 0.00 0.00 0.00 0.00 0.01 0.01 0.04 0.06
0.05 0.05 0.05 0.04 0.05 0.06 0.08 0.07 0.05 0.05 0.05 0.05 0.04 0.04 0.04 0.03 0.02 0.03 0.03 0.02 0.02 0.02 0.02 0.02 0.02 0.01 0.01 0.01 0.01 0.00 0.00 0.00 0.01 0.01 0.01 0.01 0.01 0.01 0.01 0.01 0.01 0.02 0.05
0.07 0.08 0.08 0.06 0.05 0.06 0.06 0.05 0.04 0.03 0.03 0.04 0.04 0.04 0.05 0.04 0.03 0.03 0.02 0.02 0.02 0.02 0.01 0.01 0.01 0.01 0.01 0.01 0.01 0.01 0.00 0.01 0.01 0.01 0.01 0.01 0.01 0.01 0.01 0.01 0.01 0.01 0.04
0.07 0.07 0.08 0.07 0.06 0.05 0.05 0.05 0.04 0.03 0.03 0.02 0.03 0.05 0.06 0.04 0.03 0.02 0.01 0.01 0.01 0.02 0.02 0.02 0.02 0.02 0.02 0.02 0.01 0.01 0.00 0.01 0.01 0.01 0.00 0.00 0.01 0.01 0.01 0.01 0.01 0.01 0.03
0.07 0.06 0.06 0.06 0.06 0.06 0.06 0.05 0.05 0.04 0.03 0.03 0.03 0.03 0.03 0.02 0.01 0.01 0.01 0.01 0.01 0.02 0.01 0.01 0.01 0.02 0.01 0.01 0.01 0.01 0.01 0.01 0.01 0.01 0.01 0.01 0.01 0.01 0.01 0.01 0.01 0.01 0.02
0.09 0.09 0.09 0.07 0.06 0.06 0.05 0.05 0.05 0.03 0.02 0.02 0.02 0.02 0.01 0.01 0.01 0.01 0.01 0.01 0.01 0.01 0.01 0.01 0.01 0.01 0.01 0.01 0.01 0.01 0.01 0.02 0.01 0.01 0.01 0.01 0.01 0.01 0.01 0.01 0.01 0.01 0.02
0.09 0.10 0.11 0.10 0.09 0.07 0.06 0.05 0.04 0.04 0.03 0.02 0.01 0.02 0.02 0.01 0.01 0.01 0.01 0.01 0.01 0.01 0.01 0.01 0.01 0.01 0.02 0.02 0.02 0.02 0.02 0.02 0.01 0.01 0.02 0.01 0.01 0.02 0.01 0.01 0.01 0.02 0.02
0.11 0.11 0.10 0.10 0.09 0.08 0.07 0.04 0.04 0.04 0.04 0.02 0.02 0.03 0.03 0.02 0.02 0.01 0.01 0.01 0.01 0.02 0.02 0.02 0.02 0.02 0.03 0.03 0.02 0.02 0.02 0.03 0.03 0.03 0.03 0.04 0.03 0.03 0.02 0.02 0.02 0.02 0.03
0.12 0.13 0.11 0.09 0.06 0.06 0.05 0.04 0.03 0.03 0.03 0.03 0.03 0.03 0.03 0.02 0.02 0.01 0.01 0.01 0.01 0.01 0.01 0.02 0.02 0.03 0.04 0.04 0.04 0.04 0.04 0.04 0.04 0.04 0.04 0.05 0.05 0.05 0.05 0.04 0.03 0.03 0.04
0.13 0.12 0.11 0.10 0.08 0.06 0.04 0.03 0.03 0.03 0.03 0.02 0.02 0.03 0.03 0.02 0.02 0.02 0.01 0.01 0.01 0.01 0.01 0.01 0.01 0.02 0.02 0.03 0.04 0.04 0.04 0.04 0.05 0.05 0.05 0.05 0.05 0.06 0.07 0.07 0.05 0.04 0.04
0.11 0.10 0.09 0.08 0.06 0.05 0.04 0.03 0.03 0.03 0.03 0.02 0.02 0.02 0.03 0.02 0.02 0.02 0.01 0.01 0.01 0.01 0.01 0.01 0.01 0.01 0.01 0.01 0.02 0.03 0.04 0.04 0.05 0.05 0.04 0.05 0.05 0.05 0.05 0.06 0.06 0.05 0.05
0.07 0.06 0.06 0.05 0.04 0.04 0.04 0.03 0.03 0.03 0.03 0.03 0.03 0.03 0.03 0.02 0.02 0.01 0.01 0.01 0.01 0.01 0.01 0.01 0.01 0.01 0.01 0.02 0.02 0.02 0.02 0.02 0.02 0.02 0.03 0.04 0.05 0.04 0.03 0.04 0.05 0.05 0.05
MSLP
1009.05 1008.90 1008.76 1008.58 1008.36 1008.09 1007.79 1007.48 1007.20 1006.97 1006.83 1006.77 1006.81 1006.94 1007.16 1007.45 1007.82 1008.25 1008.72 1009.22 1009.72 1010.18 1010.57 1010.84 1010.97 1010.94 1010.75 1010.43 1010.03 1009.61 1009.22 1008.90 1008.69 1008.59 1008.59 1008.65 1008.74 1008.83 1008.89 1008.90 1008.89 1008.85 1008.83
1009.03 1008.84 1008.66 1008.44 1008.19 1007.91 1007.59 1007.28 1007.00 1006.78 1006.64 1006.59 1006.66 1006.84 1007.12 1007.49 1007.94 1008.45 1009.01 1009.58 1010.12 1010.61 1010.98 1011.23 1011.31 1011.23 1011.00 1010.65 1010.24 1009.83 1009.46 1009.19 1009.02 1008.95 1008.97 1009.04 1009.12 1009.17 1009.17 1009.12 1009.03 1008.92 1008.84
1008.78 1008.58 1008.39 1008.18 1007.94 1007.68 1007.40 1007.12 1006.88 1006.70 1006.60 1006.59 1006.70 1006.92 1007.25 1007.69 1008.20 1008.79 1009.41 1010.02 1010.60 1011.10 1011.47 1011.69 1011.74 1011.63 1011.38 1011.02 1010.62 1010.22 1009.89 1009.65 1009.51 1009.47 1009.50 1009.57 1009.62 1009.63 1009.57 1009.45 1009.29 1009.11 1008.94
1008.35 1008.15 1007.97 1007.79 1007.60 1007.41 1007.21 1007.02 1006.86 1006.75 1006.71 1006.77 1006.93 1007.19 1007.57 1008.04 1008.60 1009.22 1009.88 1010.52 1011.12 1011.62 1011.99 1012.21 1012.25 1012.13 1011.87 1011.53 1011.15 1010.78 1010.48 1010.26 1010.15 1010.12 1010.15 1010.20 1010.22 1010.18 1010.07 1009.89 1009.66 1009.40 1009.17
1007.81 1007.61 1007.45 1007.33 1007.21 1007.12 1007.03 1006.96 1006.92 1006.92 1006.98 1007.11 1007.32 1007.63 1008.03 1008.52 1009.10 1009.73 1010.39 1011.04 1011.64 1012.15 1012.52 1012.74 1012.79 1012.68 1012.45 1012.13 1011.78 1011.45 1011.18 1010.98 1010.88 1010.85 1010.86 1010.88 1010.87 1010.79 1010.63 1010.40 1010.12 1009.81 1009.52
1007.25 1007.04 1006.90 1006.83 1006.81 1006.83 1006.89 1006.96 1007.06 1007.19 1007.36 1007.57 1007.84 1008.18 1008.60 1009.09 1009.65 1010.26 1010.91 1011.54 1012.13 1012.63 1013.01 1013.25 1013.32 1013.25 1013.06 1012.78 1012.47 1012.17 1011.92 1011.74 1011.63 1011.59 1011.58 1011.57 1011.52 1011.40 1011.21 1010.95 1010.64 1010.30 1009.96
1006.71 1006.48 1006.36 1006.36 1006.44 1006.59 1006.79 1007.03 1007.28 1007.55 1007.83 1008.13 1008.45 1008.81 1009.22 1009.69 1010.22 1010.79 1011.40 1012.01 1012.58 1013.07 1013.46 1013.71 1013.82 1013.79 1013.65 1013.42 1013.15 1012.88 1012.65 1012.47 1012.35 1012.28 1012.24 1012.20 1012.12 1011.98 1011.78 1011.51 1011.19 1010.84 1010.49
1006.20 1005.96 1005.88 1005.94 1006.13 1006.41 1006.77 1007.16 1007.57 1007.97 1008.36 1008.73 1009.10 1009.47 1009.87 1010.31 1010.79 1011.31 1011.87 1012.43 1012.97 1013.46 1013.85 1014.12 1014.27 1014.28 1014.19 1014.01 1013.77 1013.53 1013.31 1013.13 1012.99 1012.90 1012.82 1012.75 1012.65 1012.50 1012.30 1012.04 1011.74 1011.41 1011.07
1005.71 1005.49 1005.46 1005.61 1005.91 1006.33 1006.83 1007.37 1007.92 1008.44 1008.93 1009.37 1009.77 1010.15 1010.53 1010.93 1011.36 1011.82 1012.33 1012.85 1013.36 1013.82 1014.21 1014.50 1014.68 1014.73 1014.68 1014.54 1014.34 1014.12 1013.90 1013.71 1013.55 1013.43 1013.32 1013.23 1013.11 1012.97 1012.78 1012.55 1012.28 1011.98 1011.68
1005.24 1005.08 1005.13 1005.38 1005.80 1006.35 1006.99 1007.66 1008.33 1008.96 1009.52 1010.01 1010.44 1010.82 1011.19 1011.55 1011.93 1012.35 1012.81 1013.28 1013.76 1014.20 1014.58 1014.88 1015.08 1015.16 1015.14 1015.03 1014.85 1014.65 1014.43 1014.23 1014.05 1013.90 1013.78 1013.66 1013.54 1013.40 1013.23 1013.03 1012.80 1012.55 1012.28
1004.79 1004.73 1004.90 1005.27 1005.82 1006.51 1007.27 1008.05 1008.81 1009.52 1010.14 1010.67 1011.12 1011.50 1011.85 1012.19 1012.54 1012.92 1013.33 1013.77 1014.21 1014.63 1015.00 1015.30 1015.50 1015.60 1015.60 1015.51 1015.36 1015.16 1014.95 1014.74 1014.55 1014.38 1014.23 1014.10 1013.97 1013.83 1013.68 1013.51 1013.31 1013.10 1012.87
1004.43 1004.51 1004.82 1005.34 1006.01 1006.81 1007.67 1008.53 1009.36 1010.11 1010.77 1011.33 1011.79 1012.18 1012.52 1012.85 1013.18 1013.54 1013.92 1014.33 1014.74 1015.14 1015.49 1015.78 1015.98 1016.08 1016.10 1016.02 1015.89 1015.70 1015.50 1015.29 1015.09 1014.90 1014.74 1014.59 1014.44 1014.30 1014.15 1013.99 1013.82 1013.63 1013.43
1004.23 1004.49 1004.95 1005.60 1006.39 1007.27 1008.20 1009.11 1009.97 1010.75 1011.42 1011.99 1012.46 1012.85 1013.20 1013.53 1013.86 1014.21 1014.58 1014.96 1015.35 1015.72 1016.06 1016.33 1016.52 1016.63 1016.65 1016.60 1016.48 1016.31 1016.12 1015.92 1015.71 1015.52 1015.33 1015.16 1015.00 1014.83 1014.67 1014.50 1014.33 1014.15 1013.96
1004.31 1004.73 1005.34 1006.10 1006.97 1007.91 1008.86 1009.79 1010.65 1011.42 1012.08 1012.65 1013.12 1013.53 1013.89 1014.23 1014.57 1014.92 1015.29 1015.66 1016.03 1016.38 1016.69 1016.95 1017.13 1017.24 1017.28 1017.24 1017.15 1017.01 1016.84 1016.65 1016.45 1016.24 1016.04 1015.84 1015.64 1015.44 1015.24 1015.05 1014.85 1014.65 1014.45
1004.76 1005.31 1006.02 1006.85 1007.77 1008.71 1009.65 1010.55 1011.37 1012.11 1012.75 1013.30 1013.78 1014.20 1014.58 1014.94 1015.30 1015.66 1016.03 1016.40 1016.76 1017.09 1017.38 1017.62 1017.80 1017.91 1017.96 1017.95 1017.89 1017.78 1017.64 1017.47 1017.28 1017.06 1016.84 1016.60 1016.36 1016.11 1015.86 1015.62 1015.38 1015.15 1014.93
1005.61 1006.25 1007.01 1007.86 1008.76 1009.66 1010.54 1011.37 1012.13 1012.82 1013.42 1013.96 1014.43 1014.86 1015.27 1015.66 1016.04 1016.42 1016.79 1017.16 1017.50 1017.82 1018.09 1018.32 1018.49 1018.62 1018.69 1018.71 1018.68 1018.61 1018.50 1018.35 1018.17 1017.95 1017.69 1017.42 1017.12 1016.81 1016.50 1016.20 1015.91 1015.64 1015.39
1006.82 1007.49 1008.24 1009.05 1009.89 1010.71 1011.50 1012.25 1012.93 1013.55 1014.11 1014.62 1015.09 1015.54 1015.97 1016.38 1016.79 1017.18 1017.57 1017.93 1018.26 1018.55 1018.81 1019.03 1019.20 1019.33 1019.42 1019.47 1019.48 1019.45 1019.37 1019.24 1019.06 1018.82 1018.54 1018.22 1017.87 1017.50 1017.12 1016.76 1016.42 1016.11 1015.82
1008.30 1008.93 1009.63 1010.36 1011.09 1011.81 1012.50 1013.15 1013.75 1014.30 1014.82 1015.32 1015.79 1016.25 1016.70 1017.13 1017.56 1017.96 1018.34 1018.69 1019.00 1019.28 1019.52 1019.72 1019.89 1020.03 1020.14 1020.22 1020.26 1020.25 1020.19 1020.07 1019.89 1019.63 1019.32 1018.95 1018.54 1018.12 1017.69 1017.27 1016.88 1016.52 1016.21
1009.88 1010.44 1011.05 1011.68 1012.30 1012.91 1013.50 1014.05 1014.58 1015.08 1015.57 1016.05 1016.53 1017.00 1017.46 1017.91 1018.34 1018.74 1019.11 1019.44 1019.73 1019.99 1020.20 1020.39 1020.56 1020.70 1020.81 1020.90 1020.96 1020.96 1020.91 1020.79 1020.59 1020.32 1019.97 1019.56 1019.11 1018.63 1018.15 1017.69 1017.26 1016.87 1016.53
1011.42 1011.90 1012.41 1012.93 1013.46 1013.97 1014.46 1014.95 1015.42 1015.89 1016.36 1016.83 1017.31 1017.79 1018.25 1018.70 1019.13 1019.52 1019.86 1020.17 1020.43 1020.65 1020.84 1021.01 1021.15 1021.29 1021.40 1021.49 1021.55 1021.55 1021.49 1021.35 1021.14 1020.83 1020.45 1020.00 1019.51 1019.00 1018.49 1018.00 1017.55 1017.14 1016.77
1012.80 1013.20 1013.62 1014.06 1014.50 1014.95 1015.38 1015.82 1016.27 1016.72 1017.17 1017.64 1018.12 1018.59 1019.05 1019.48 1019.88 1020.24 1020.56 1020.82 1021.05 1021.23 1021.39 1021.53 1021.66 1021.78 1021.88 1021.95 1021.99 1021.98 1021.90 1021.74 1021.49 1021.16 1020.74 1020.27 1019.76 1019.23 1018.71 1018.21 1017.74 1017.31 1016.92
1013.96 1014.30 1014.67 1015.05 1015.44 1015.85 1016.26 1016.67 1017.10 1017.54 1017.99 1018.45 1018.91 1019.36 1019.79 1020.19 1020.55 1020.87 1021.14 1021.36 1021.54 1021.69 1021.82 1021.93 1022.04 1022.13 1022.21 1022.27 1022.28 1022.24 1022.13 1021.93 1021.66 1021.30 1020.86 1020.38 1019.85 1019.33 1018.81 1018.31 1017.85 1017.42 1017.01
1014.93 1015.23 1015.56 1015.92 1016.29 1016.68 1017.08 1017.49 1017.91 1018.33 1018.76 1019.20 1019.62 1020.03 1020.41 1020.76 1021.06 1021.32 1021.54 1021.71 1021.85 1021.97 1022.07 1022.16 1022.25 1022.33 1022.39 1022.42 1022.41 1022.34 1022.19 1021.97 1021.67 1021.29 1020.84 1020.35 1019.84 1019.33 1018.83 1018.36 1017.91 1017.48 1017.06
1015.75 1016.04 1016.37 1016.72 1017.09 1017.48 1017.87 1018.27 1018.67 1019.06 1019.46 1019.84 1020.21 1020.55 1020.86 1021.13 1021.36 1021.56 1021.71 1021.84 1021.95 1022.04 1022.13 1022.21 1022.29 1022.36 1022.41 1022.43 1022.40 1022.31 1022.14 1021.90 1021.58 1021.19 1020.74 1020.27 1019.78 1019.29 1018.83 1018.38 1017.96 1017.55 1017.13
1016.54 1016.83 1017.15 1017.51 1017.87 1018.25 1018.63 1019.00 1019.36 1019.71 1020.03 1020.34 1020.62 1020.87 1021.09 1021.28 1021.43 1021.55 1021.66 1021.75 1021.83 1021.92 1022.00 1022.09 1022.18 1022.27 1022.32 1022.34 1022.31 1022.21 1022.03 1021.78 1021.45 1021.07 1020.64 1020.18 1019.73 1019.28 1018.85 1018.45 1018.06 1017.67 1017.26
1017.33 1017.62 1017.95 1018.29 1018.65 1019.00 1019.34 1019.66 1019.96 1020.23 1020.47 1020.68 1020.86 1021.00 1021.12 1021.21 1021.28 1021.34 1021.40 1021.47 1021.54 1021.63 1021.74 1021.86 1021.98 1022.09 1022.17 1022.21 1022.19 1022.10 1021.93 1021.68 1021.37 1021.00 1020.59 1020.16 1019.74 1019.33 1018.95 1018.58 1018.23 1017.88 1017.49
Thickness
5735 5732 5729 5726 5725 5724 5722 5720 5718 5717 5716 5714 5713 5711 5710 5708 5707 5705 5704 5703 5702 5701 5700 5699 5698 5698 5697 5697 5697 5696 5695 5693 5689 5691 5693 5695 5695 5695 5695 5695 5695 5695 5695
5732 5728 5724 5722 5720 5718 5717 5715 5714 5712 5711 5710 5707 5705 5703 5702 5700 5699 5697 5697 5696 5694 5693 5692 5692 5692 5691 5690 5690 5689 5689 5689 5686 5684 5685 5687 5688 5689 5688 5689 5690 5690 5690
5728 5724 5720 5717 5714 5713 5712 5711 5709 5708 5705 5704 5701 5699 5697 5695 5694 5693 5692 5691 5690 5689 5687 5686 5685 5685 5684 5683 5683 5683 5682 5684 5682 5679 5679 5681 5681 5683 5682 5683 5685 5685 5686
5724 5720 5717 5713 5711 5709 5707 5706 5704 5703 5700 5697 5695 5693 5691 5689 5688 5687 5686 5684 5683 5683 5682 5681 5680 5679 5678 5677 5677 5676 5676 5675 5674 5673 5673 5673 5674 5676 5676 5675 5676 5678 5679
5719 5716 5713 5711 5708 5705 5703 5701 5699 5697 5695 5692 5690 5687 5686 5684 5682 5680 5679 5679 5677 5676 5676 5675 5675 5674 5674 5673 5672 5670 5670 5668 5667 5666 5665 5665 5665 5666 5666 5669 5669 5671 5672
5716 5713 5710 5707 5704 5702 5699 5697 5694 5691 5689 5687 5684 5682 5680 5679 5677 5675 5674 5672 5670 5669 5668 5668 5668 5668 5668 5668 5667 5666 5665 5663 5660 5659 5658 5658 5659 5660 5661 5663 5662 5663 5663
5713 5710 5707 5704 5701 5698 5696 5692 5689 5686 5683 5681 5679 5677 5674 5673 5672 5670 5668 5666 5665 5663 5662 5661 5662 5662 5661 5660 5660 5660 5660 5659 5658 5655 5654 5654 5655 5656 5656 5656 5656 5657 5658
5709 5706 5704 5701 5698 5695 5692 5688 5685 5682 5679 5676 5674 5672 5669 5668 5667 5665 5663 5661 5659 5658 5657 5655 5653 5653 5654 5653 5653 5652 5652 5652 5652 5651 5651 5651 5652 5653 5653 5653 5652 5652 5654
5705 5703 5701 5698 5694 5690 5687 5684 5681 5677 5674 5671 5669 5667 5664 5662 5661 5659 5657 5654 5651 5650 5650 5649 5647 5646 5647 5646 5645 5644 5644 5644 5646 5646 5646 5647 5648 5648 5648 5647 5646 5645 5644
5702 5700 5697 5694 5691 5687 5683 5680 5676 5673 5670 5667 5664 5662 5660 5657 5656 5653 5650 5647 5644 5643 5642 5642 5641 5640 5640 5639 5637 5636 5635 5636 5638 5639 5639 5640 5641 5641 5642 5641 5640 5638 5637
5698 5695 5691 5688 5686 5683 5679 5676 5672 5668 5664 5661 5658 5656 5654 5653 5650 5648 5645 5641 5638 5636 5635 5634 5634 5634 5633 5632 5630 5629 5629 5630 5630 5630 5630 5631 5632 5633 5634 5635 5635 5634 5632
5691 5688 5684 5682 5680 5678 5673 5670 5666 5662 5658 5654 5651 5648 5647 5646 5644 5642 5639 5636 5634 5630 5628 5628 5627 5627 5626 5625 5624 5624 5623 5622 5621 5621 5621 5622 5623 5625 5627 5628 5628 5629 5628
5684 5680 5678 5675 5673 5671 5667 5663 5659 5655 5651 5648 5645 5642 5640 5639 5638 5636 5633 5630 5628 5625 5623 5622 5621 5619 5619 5618 5617 5617 5616 5614 5613 5612 5613 5614 5616 5618 5619 5620 5621 5621 5621
5676 5674 5671 5667 5664 5662 5659 5656 5652 5648 5645 5642 5639 5637 5634 5632 5630 5628 5626 5623 5621 5618 5616 5614 5613 5612 5611 5610 5609 5609 5608 5607 5605 5605 5606 5607 5609 5610 5610 5611 5610 5611 5611
5669 5666 5663 5660 5657 5653 5650 5648 5645 5644 5642 5638 5635 5633 5629 5626 5626 5624 5620 5616 5613 5611 5608 5604 5602 5601 5600 5600 5600 5600 5600 5599 5598 5598 5599 5599 5601 5601 5601 5602 5601 5601 5600
5660 5657 5655 5651 5648 5644 5641 5638 5636 5635 5635 5633 5631 5628 5625 5623 5620 5616 5612 5610 5607 5604 5599 5596 5594 5593 5593 5592 5592 5592 5592 5592 5592 5591 5591 5592 5592 5593 5593 5593 5593 5592 5592
5653 5650 5647 5644 5640 5636 5633 5630 5626 5624 5624 5622 5621 5619 5616 5613 5611 5607 5604 5601 5599 5595 5591 5589 5587 5586 5586 5585 5585 5584 5584 5585 5585 5584 5584 5584 5585 5585 5585 5584 5584 5584 5584
5645 5642 5640 5637 5633 5630 5627 5623 5620 5617 5613 5610 5610 5608 5606 5604 5601 5598 5595 5591 5588 5585 5583 5582 5581 5580 5579 5579 5578 5578 5577 5577 5577 5577 5577 5577 5577 5577 5577 5576 5576 5576 5576
5635 5633 5631 5629 5625 5622 5619 5615 5612 5610 5606 5603 5599 5597 5596 5594 5591 5588 5585 5583 5580 5578 5576 5574 5574 5573 5572 5572 5571 5571 5570 5569 5569 5569 5569 5570 5570 5569 5569 5569 5569 5570 5569
5626 5624 5622 5619 5616 5612 5610 5607 5604 5601 5598 5595 5592 5589 5587 5584 5581 5579 5576 5575 5573 5571 5570 5568 5567 5566 5565 5565 5564 5563 5562 5561 5561 5560 5561 5562 5562 5562 5562 5562 5562 5562 5562
5616 5614 5613 5610 5607 5604 5601 5599 5596 5592 5590 5587 5585 5583 5580 5577 5575 5572 5570 5568 5566 5564 5563 5561 5560 5559 5558 5557 5556 5555 5554 5553 5553 5552 5552 5553 5554 5554 5555 5556 5557 5557 5556
5607 5605 5602 5600 5598 5595 5592 5590 5587 5584 5581 5579 5576 5574 5570 5568 5566 5564 5562 5561 5559 5558 5556 5554 5553 5552 5551 5549 5548 5547 5546 5545 5544 5544 5544 5545 5545 5546 5547 5548 5549 5549 5549
5596 5594 5593 5590 5588 5586 5583 5580 5578 5575 5572 5570 5567 5563 5560 5558 5556 5555 5554 5553 5552 5550 5548 5547 5545 5544 5543 5542 5541 5539 5538 5536 5536 5536 5536 5537 5537 5538 5538 5539 5540 5541 5541
5586 5584 5582 5580 5578 5575 5572 5570 5567 5565 5563 5561 5558 5555 5553 5551 5549 5548 5547 5546 5544 5542 5540 5539 5537 5536 5535 5534 5533 5532 5531 5530 5529 5528 5528 5529 5529 5529 5529 5530 5530 5532 5532
5576 5574 5572 5570 5567 5564 5562 5560 5558 5556 5555 5553 5550 5548 5545 5544 5542 5541 5540 5539 5537 5534 5533 5531 5530 5528 5527 5526 5525 5524 5523 5522 5521 5521 5521 5521 5521 5521 5521 5521 5521 5522 5523
5565 5563 5562 5560 5558 5556 5554 5552 5550 5548 5546 5545 5543 5540 5539 5537 5535 5534 5532 5531 5529 5527 5525 5524 5522 5521 5520 5518 5517 5516 5515 5514 5513 5513 5514 5514 5513 5513 5513 5513 5513 5513 5514